Погода в Новом Орлеане

США     29°56′53″N   90°04′13″W
темп.,
°C
ветер,
м/с
пор.,
м/с
влажн.,
%
обл.,
%
осадки,
мм/ч
давл.,
гПа
погр.,
м
27 июля, вт
вт2701:00+27ююз35760 0.0 1014189
04:00+26юз23750 0.0 1014116
07:00+26ююз12750 0.0 101583
10:00+31ююз11540 0.0 1016823
13:00+34ссз22420 0.0 10151564
16:00+34св43430 0.0 10141528
19:00+32ююв455099 0.0 1014517
22:00+28ю357051 0.0 1015275
28 июля, ср
ср2801:00+27юз23774 0.0 1016168
04:00+27зюз128047 0.0 1015113
07:00+27сз128087 0.0 1016150
10:00+31с22605 0.0 1017958
13:00+34ссв234712 0.0 10161722
16:00+35всв33434 0.0 10141804
19:00+33ююв45523 0.0 1013446
22:00+28св227196 0.1 1015183
29 июля, чт
чт2901:00+28ю1274100 0.2 1015145
04:00+27ююз127898 0.0 1015122
07:00+27ююз12785 0.0 1016122
10:00+31зюз116022 0.1 1017899
13:00+34ссз32488 0.1 10161648
16:00+34всв124782 0.1 10151570
19:00+32ююз34565 0.1 1015498
22:00+29юз45705 0.1 1016280
30 июля, пт
пт3001:00+28юз35760 0.1 1016210
04:00+27зюз34790 0.0 1016197
07:00+27з24813 0.1 1017211
10:00+31з33635 0.2 1018691
13:00+34сз325193 0.3 10171373
16:00+35ссз3342100 0.0 10161618
19:00+33ююз1252100 0.1 1015193
22:00+30зюз46719 0.1 1017301
31 июля, сб
сб3101:00+28зюз47764 0.1 1017291
04:00+27з35803 0.0 1016228
07:00+27зсз35835 0.0 1017287
10:00+31зсз33670 0.0 1018684
13:00+33сз32540 0.0 10171319
16:00+35сз42432 0.0 10151302
19:00+34зюз22515 0.0 1015417
22:00+30зюз46672 0.0 1016287